Content
SEND FEEDBACK

Daily
Averages
Monthly
Summary
India

AMRITSAR, INDIA


Home > Asia > India
Elevation: 752 feet     Latitude: 31 42N     Longitude: 074 47E

WEATHER
 
SELECT A DAY
Number of Records: 125,008;   Date Range: 7/1/96 - 7/28/14
 
SHARE

PRINT THIS DATA

[ ← Previous Day ]
WEATHER ALMANAC - OCTOBER 5, 2013
[ Next Day → ]
[ °C ]   °F
Weather ElementAverageHighLow
Temperature81.5 °F87.8 °F (2:00 pm)75.2 °F (7:00 am)
Dewpoint75.3 °F78.8 °F (6:00 pm)71.6 °F (7:00 am)
Humidity81.4 %94 % (10:30 pm)63 % (2:30 pm)
Barometer29.71 in29.77 in (12:30 am)29.59 in (5:30 pm)
Wind Speed2.1 mph8.1 mph (10:00 am)
Weather ElementAverage
Visibility1.2 mi
Wind DirectionESE (106.9 °)

Weather ElementTotal
Precipitation---
Cooling Degree Days16.5 (Base 65)
Growing Degree Days31.5 (Base 50)
Averaged from 53 records on October 5, 2013
WEATHER CONDITIONS BREAKOUT
WIND DIRECTION BREAKOUT
WEATHER BY HOUR - OCTOBER 5, 2013
[ °C ]   °F
Local TimeTemperatureDewpointHumidityBarometerVisibilityWind DirectionWind SpeedGust SpeedPrecipitationEventsConditions
12:30 AM77.0 °F73.4 °F89 %29.77 in0.7 miCalmPartly Cloudy
1:00 AM77.0 °F73.4 °F89 %29.77 in0.7 miCalmPartly Cloudy
1:30 AM77.0 °F73.4 °F89 %29.77 in0.7 miCalmPartly Cloudy
2:00 AM77.0 °F73.4 °F89 %29.77 in0.7 miCalmPartly Cloudy
2:30 AM77.0 °F74.0 °F88 %29.73 in1.0 miCalmMist
2:30 AM77.0 °F73.4 °F89 %29.77 in0.7 miCalmPartly Cloudy
3:00 AM77.0 °F73.4 °F89 %29.77 in0.7 miCalmPartly Cloudy
3:30 AM77.0 °F73.4 °F89 %29.77 in0.7 miCalmScattered Clouds
4:00 AM77.0 °F73.4 °F89 %29.74 in0.6 miCalmScattered Clouds
4:30 AM77.0 °F73.4 °F89 %29.74 in0.6 miCalmScattered Clouds
5:00 AM77.0 °F73.4 °F89 %29.77 in0.6 miCalmPartly Cloudy
5:30 AM77.0 °F73.4 °F89 %29.77 in0.6 miCalmPartly Cloudy
6:00 AM77.0 °F73.4 °F89 %29.77 in0.6 miCalmFogShallow Fog
6:30 AM77.0 °F73.4 °F89 %29.77 in0.6 miVariable1.2 mphFogShallow Fog
7:00 AM75.2 °F71.6 °F89 %29.77 in0.6 miCalmFogShallow Fog
7:30 AM77.0 °F71.6 °F83 %29.77 in0.6 miCalmFogShallow Fog
8:00 AM77.0 °F73.4 °F89 %29.77 in0.9 miWNW (300°)4.6 mphScattered Clouds
8:30 AM79.0 °F73.0 °F77 %29.74 in1.0 miWNW (290°)4.6 mphMist
8:30 AM78.8 °F73.4 °F83 %29.77 in1.6 miWNW (290°)4.6 mphScattered Clouds
9:00 AM78.8 °F73.4 °F83 %29.77 in1.6 miWNW (300°)4.6 mphScattered Clouds
9:30 AM80.6 °F75.2 °F84 %29.77 in1.9 miNW (310°)5.8 mphPartly Cloudy
10:00 AM82.4 °F75.2 °F79 %29.77 in1.9 miWNW (290°)8.1 mphPartly Cloudy
10:30 AM82.4 °F73.4 °F74 %29.77 in1.9 miWNW (300°)8.1 mphHaze
11:00 AM84.2 °F75.2 °F74 %29.77 in1.9 miWNW (300°)6.9 mphHaze
11:30 AM85.0 °F76.0 °F67 %29.71 in1.0 miNW (320°)5.8 mphHaze
11:30 AM84.2 °F75.2 °F74 %29.74 in1.9 miNW (320°)5.8 mphHaze
12:00 PM86.0 °F75.2 °F70 %29.74 in1.9 miWest (280°)5.8 mphHaze
12:30 PM86.0 °F75.2 °F70 %29.71 in1.9 miWNW (290°)4.6 mphHaze
1:00 PM86.0 °F75.2 °F70 %29.71 in1.9 miWNW (300°)5.8 mphHaze
1:30 PM86.0 °F75.2 °F70 %29.68 in1.9 miWest (270°)5.8 mphHaze
2:00 PM87.8 °F75.2 °F66 %29.68 in1.9 miWest (270°)4.6 mphHaze
2:30 PM87.0 °F76.0 °F63 %29.63 in1.0 miWest (270°)5.8 mphHaze
2:30 PM87.8 °F77.0 °F70 %29.68 in1.9 miWest (270°)5.8 mphHaze
3:00 PM87.8 °F77.0 °F70 %29.65 in1.9 miWest (270°)4.6 mphHaze
3:30 PM87.8 °F77.0 °F70 %29.65 in1.9 miVariable2.3 mphHaze
4:00 PM87.8 °F77.0 °F70 %29.65 in1.9 miVariable2.3 mphHaze
4:30 PM87.8 °F77.0 °F70 %29.65 in1.9 miVariable2.3 mphHaze
5:00 PM87.8 °F77.0 °F70 %29.65 in1.9 miCalmHaze
5:30 PM86.0 °F77.0 °F69 %29.59 in1.0 miCalmHaze
5:30 PM86.0 °F77.0 °F74 %29.62 in1.9 miCalmHaze
6:00 PM86.0 °F78.8 °F79 %29.65 in1.6 miCalmScattered Clouds
6:30 PM84.2 °F78.8 °F84 %29.62 in1.6 miCalmPartly Cloudy
7:00 PM84.2 °F78.8 °F84 %29.65 in1.2 miCalmPartly Cloudy
7:30 PM82.4 °F78.8 °F89 %29.65 in1.2 miCalmPartly Cloudy
8:00 PM82.4 °F78.8 °F89 %29.65 in1.2 miCalmPartly Cloudy
8:30 PM81.0 °F77.0 °F83 %29.63 in1.0 miCalmMist
8:30 PM80.6 °F77.0 °F89 %29.68 in1.2 miCalmPartly Cloudy
9:30 PM80.6 °F77.0 °F89 %29.68 in0.9 miCalmScattered Clouds
10:00 PM80.6 °F77.0 °F89 %29.68 in0.7 miCalmScattered Clouds
10:30 PM78.8 °F77.0 °F94 %29.68 in0.7 miCalmScattered Clouds
11:00 PM80.6 °F77.0 °F89 %29.68 in0.7 miVariable1.2 mphScattered Clouds
11:30 PM79.0 °F77.0 °F90 %29.65 in1.0 miCalmMist
11:30 PM78.8 °F77.0 °F94 %29.68 in0.6 miCalmScattered Clouds
Hourly data recorded from VIAR, located miles away from Amritsar, India







STORIES FROM OUR PARTNERS